Time,TemperatureF,DewpointF,PressureIn,WindDirection,WindDirectionDegrees,WindSpeedMPH,WindSpeedGustMPH,Humidity,HourlyPrecipIn,Conditions,Clouds,dailyrainin,SolarRadiationWatts/m^2,SoftwareType,DateUTC
2013-02-22 00:00:00,71.5,66.4,30.01,South,175,1.0,1.0,84,0.00,,CLR,0.00,0.00,VWS V14.00,2013-02-22 05:00:00,
2013-02-22 00:01:00,71.6,66.5,30.01,South,175,0.0,3.0,84,0.00,,CLR,0.00,0.00,VWS V14.00,2013-02-22 05:01:00,
2013-02-22 00:06:00,71.5,66.4,30.01,South,175,0.0,0.0,84,0.00,,CLR,0.00,0.00,VWS V14.00,2013-02-22 05:06:00,
2013-02-22 00:11:00,71.5,66.4,30.01,South,175,0.0,1.0,84,0.00,,CLR,0.00,0.00,VWS V14.00,2013-02-22 05:11:00,
2013-02-22 00:16:00,71.5,66.4,30.01,South,175,0.0,3.0,84,0.00,,CLR,0.00,0.00,VWS V14.00,2013-02-22 05:16:00,
2013-02-22 00:21:00,71.5,66.4,30.01,South,175,0.0,2.0,84,0.00,,CLR,0.00,0.00,VWS V14.00,2013-02-22 05:21:00,
2013-02-22 00:26:00,71.4,66.3,30.01,South,175,0.0,1.0,84,0.00,,CLR,0.00,0.00,VWS V14.00,2013-02-22 05:26:00,
2013-02-22 00:31:00,71.4,66.3,30.00,South,175,2.0,3.0,84,0.00,,CLR,0.00,0.00,VWS V14.00,2013-02-22 05:31:00,
2013-02-22 00:36:00,71.4,66.7,30.00,South,175,0.0,3.0,85,0.00,,CLR,0.00,0.00,VWS V14.00,2013-02-22 05:36:00,
2013-02-22 00:41:00,71.4,66.7,30.00,South,175,0.0,2.0,85,0.00,,CLR,0.00,0.00,VWS V14.00,2013-02-22 05:41:00,
2013-02-22 00:46:00,71.4,66.7,30.00,South,175,0.0,4.0,85,0.00,,CLR,0.00,0.00,VWS V14.00,2013-02-22 05:46:00,
2013-02-22 00:51:00,71.4,66.7,30.00,South,175,1.0,5.0,85,0.00,,CLR,0.00,0.00,VWS V14.00,2013-02-22 05:51:00,
2013-02-22 00:56:00,71.4,66.7,30.00,South,175,0.0,2.0,85,0.00,,CLR,0.00,0.00,VWS V14.00,2013-02-22 05:56:00,
2013-02-22 01:01:00,71.3,66.6,30.00,South,175,0.0,2.0,85,0.00,,CLR,0.00,0.00,VWS V14.00,2013-02-22 06:01:00,
2013-02-22 01:06:00,71.3,66.6,30.00,South,175,0.0,0.0,85,0.00,,CLR,0.00,0.00,VWS V14.00,2013-02-22 06:06:00,
2013-02-22 01:11:00,71.2,66.5,30.00,South,175,0.0,0.0,85,0.00,,CLR,0.00,0.00,VWS V14.00,2013-02-22 06:11:00,
2013-02-22 01:16:00,71.2,66.8,30.00,South,175,0.0,1.0,86,0.00,,CLR,0.00,0.00,VWS V14.00,2013-02-22 06:16:00,
2013-02-22 01:21:00,71.2,66.8,30.00,South,175,0.0,1.0,86,0.00,,CLR,0.00,0.00,VWS V14.00,2013-02-22 06:21:00,
2013-02-22 01:26:00,71.1,66.7,30.00,South,175,2.0,4.0,86,0.00,,CLR,0.00,0.00,VWS V14.00,2013-02-22 06:26:00,
2013-02-22 01:31:00,71.1,66.7,30.00,South,175,0.0,1.0,86,0.00,,CLR,0.00,0.00,VWS V14.00,2013-02-22 06:31:00,
2013-02-22 01:36:00,71.1,66.7,30.00,South,175,0.0,0.0,86,0.00,,CLR,0.00,0.00,VWS V14.00,2013-02-22 06:36:00,
2013-02-22 01:41:00,71.1,66.7,30.00,South,175,0.0,0.0,86,0.00,,CLR,0.00,0.00,VWS V14.00,2013-02-22 06:41:00,
2013-02-22 01:46:00,71.0,66.6,30.00,South,175,0.0,0.0,86,0.00,,CLR,0.00,0.00,VWS V14.00,2013-02-22 06:46:00,
2013-02-22 01:51:00,71.0,66.9,30.00,South,175,0.0,0.0,87,0.00,,CLR,0.00,0.00,VWS V14.00,2013-02-22 06:51:00,
2013-02-22 01:56:00,70.9,66.8,30.00,South,175,0.0,1.0,87,0.00,,CLR,0.00,0.00,VWS V14.00,2013-02-22 06:56:00,
2013-02-22 02:01:00,70.9,66.8,29.99,South,175,0.0,1.0,87,0.00,,CLR,0.00,0.00,VWS V14.00,2013-02-22 07:01:00,
2013-02-22 02:06:00,70.8,66.7,30.00,South,175,0.0,0.0,87,0.00,,CLR,0.00,0.00,VWS V14.00,2013-02-22 07:06:00,
2013-02-22 02:11:00,70.8,66.7,30.00,South,175,0.0,1.0,87,0.00,,CLR,0.00,0.00,VWS V14.00,2013-02-22 07:11:00,
2013-02-22 02:16:00,70.8,66.7,29.99,South,175,0.0,0.0,87,0.00,,CLR,0.00,0.00,VWS V14.00,2013-02-22 07:16:00,
2013-02-22 02:21:00,70.8,66.7,29.99,South,175,0.0,1.0,87,0.00,,CLR,0.00,0.00,VWS V14.00,2013-02-22 07:21:00,
2013-02-22 02:26:00,70.8,66.7,29.98,South,175,0.0,0.0,87,0.00,,CLR,0.00,0.00,VWS V14.00,2013-02-22 07:26:00,
2013-02-22 02:31:00,70.8,67.1,29.98,South,175,0.0,1.0,88,0.00,,CLR,0.00,0.00,VWS V14.00,2013-02-22 07:31:00,
2013-02-22 02:36:00,70.8,67.1,29.98,South,175,0.0,0.0,88,0.00,,CLR,0.00,0.00,VWS V14.00,2013-02-22 07:36:00,
2013-02-22 02:41:00,70.8,67.1,29.98,South,175,0.0,3.0,88,0.00,,CLR,0.00,0.00,VWS V14.00,2013-02-22 07:41:00,
2013-02-22 02:46:00,70.8,67.1,29.98,South,175,0.0,3.0,88,0.00,,CLR,0.00,0.00,VWS V14.00,2013-02-22 07:46:00,
2013-02-22 02:51:00,70.9,67.2,29.98,South,175,0.0,1.0,88,0.00,,CLR,0.00,0.00,VWS V14.00,2013-02-22 07:51:00,
2013-02-22 02:56:00,71.0,67.3,29.98,South,175,1.0,4.0,88,0.00,,CLR,0.00,0.00,VWS V14.00,2013-02-22 07:56:00,
2013-02-22 03:01:00,71.0,67.3,29.97,South,175,0.0,4.0,88,0.00,,CLR,0.00,0.00,VWS V14.00,2013-02-22 08:01:00,
2013-02-22 03:06:00,71.2,67.5,29.97,South,175,0.0,4.0,88,0.00,,CLR,0.00,0.00,VWS V14.00,2013-02-22 08:06:00,
2013-02-22 03:11:00,71.3,67.6,29.97,South,175,0.0,6.0,88,0.00,,CLR,0.00,0.00,VWS V14.00,2013-02-22 08:11:00,
2013-02-22 03:16:00,71.5,67.8,29.97,South,173,8.0,8.0,88,0.00,,CLR,0.00,0.00,VWS V14.00,2013-02-22 08:16:00,
2013-02-22 03:21:00,71.6,67.9,29.97,South,171,2.0,2.0,88,0.00,,CLR,0.00,0.00,VWS V14.00,2013-02-22 08:21:00,
2013-02-22 03:26:00,71.7,68.0,29.97,South,171,0.0,5.0,88,0.00,,CLR,0.00,0.00,VWS V14.00,2013-02-22 08:26:00,
2013-02-22 03:31:00,71.8,68.1,29.97,SSE,168,3.0,6.0,88,0.00,,CLR,0.00,0.00,VWS V14.00,2013-02-22 08:31:00,
2013-02-22 03:36:00,71.9,68.2,29.97,SSE,167,5.0,8.0,88,0.00,,CLR,0.00,0.00,VWS V14.00,2013-02-22 08:36:00,
2013-02-22 03:41:00,71.9,68.2,29.97,SSE,166,1.0,4.0,88,0.00,,CLR,0.00,0.00,VWS V14.00,2013-02-22 08:41:00,
2013-02-22 03:46:00,72.0,68.3,29.97,SSE,167,3.0,6.0,88,0.00,,CLR,0.00,0.00,VWS V14.00,2013-02-22 08:46:00,
2013-02-22 03:51:00,72.0,68.3,29.97,SSE,165,4.0,5.0,88,0.00,,CLR,0.00,0.00,VWS V14.00,2013-02-22 08:51:00,
2013-02-22 03:56:00,72.0,68.3,29.97,SSE,166,3.0,4.0,88,0.00,,CLR,0.00,0.00,VWS V14.00,2013-02-22 08:56:00,
2013-02-22 04:01:00,72.1,68.3,29.97,SSE,165,6.0,6.0,88,0.00,,CLR,0.00,0.00,VWS V14.00,2013-02-22 09:01:00,
2013-02-22 04:06:00,72.1,68.3,29.97,SSE,165,1.0,4.0,88,0.00,,CLR,0.00,0.00,VWS V14.00,2013-02-22 09:06:00,
2013-02-22 04:11:00,72.1,68.3,29.97,SSE,165,4.0,5.0,88,0.00,,CLR,0.00,0.00,VWS V14.00,2013-02-22 09:11:00,
2013-02-22 04:16:00,72.1,68.3,29.97,SSE,165,0.0,0.0,88,0.00,,CLR,0.00,0.00,VWS V14.00,2013-02-22 09:16:00,
2013-02-22 04:21:00,72.1,68.3,29.98,SSE,165,1.0,3.0,88,0.00,,CLR,0.00,0.00,VWS V14.00,2013-02-22 09:21:00,
2013-02-22 04:26:00,72.1,68.3,29.98,SSE,165,4.0,4.0,88,0.00,,CLR,0.00,0.00,VWS V14.00,2013-02-22 09:26:00,
2013-02-22 04:32:00,72.1,68.3,29.98,SSE,165,0.0,3.0,88,0.00,,CLR,0.00,0.00,VWS V14.00,2013-02-22 09:32:00,
2013-02-22 04:37:00,72.1,68.3,29.98,SSE,165,0.0,1.0,88,0.00,,CLR,0.00,0.00,VWS V14.00,2013-02-22 09:37:00,
2013-02-22 04:42:00,72.1,68.3,29.98,SSE,165,0.0,4.0,88,0.00,,CLR,0.00,0.00,VWS V14.00,2013-02-22 09:42:00,
2013-02-22 04:47:00,72.0,68.3,29.98,SSE,165,0.0,3.0,88,0.00,,CLR,0.00,0.00,VWS V14.00,2013-02-22 09:47:00,
2013-02-22 04:52:00,72.0,68.3,29.98,SSE,165,0.0,4.0,88,0.00,,CLR,0.00,0.00,VWS V14.00,2013-02-22 09:52:00,
2013-02-22 04:57:00,72.1,68.3,29.99,SSE,164,0.0,5.0,88,0.00,,CLR,0.00,0.00,VWS V14.00,2013-02-22 09:57:00,
2013-02-22 05:02:00,72.1,68.3,29.99,SSE,164,0.0,3.0,88,0.00,,CLR,0.00,0.00,VWS V14.00,2013-02-22 10:02:00,
2013-02-22 05:07:00,72.1,68.7,29.99,SSE,164,0.0,5.0,89,0.00,,CLR,0.00,0.00,VWS V14.00,2013-02-22 10:07:00,
2013-02-22 05:12:00,72.1,68.7,29.99,SSE,164,1.0,4.0,89,0.00,,CLR,0.00,0.00,VWS V14.00,2013-02-22 10:12:00,
2013-02-22 05:17:00,72.1,68.7,29.99,SSE,164,0.0,1.0,89,0.00,,CLR,0.00,0.00,VWS V14.00,2013-02-22 10:17:00,
2013-02-22 05:22:00,72.2,68.8,29.99,SSE,164,0.0,5.0,89,0.00,,CLR,0.00,0.00,VWS V14.00,2013-02-22 10:22:00,
2013-02-22 05:27:00,72.2,68.8,29.99,SSE,164,0.0,0.0,89,0.00,,CLR,0.00,0.00,VWS V14.00,2013-02-22 10:27:00,
2013-02-22 05:32:00,72.2,68.8,29.99,SSE,164,0.0,3.0,89,0.00,,CLR,0.00,0.00,VWS V14.00,2013-02-22 10:32:00,
2013-02-22 05:37:00,72.4,69.0,29.99,SSE,164,0.0,3.0,89,0.00,,CLR,0.00,0.00,VWS V14.00,2013-02-22 10:37:00,
2013-02-22 05:42:00,72.4,69.0,29.99,SSE,164,6.0,6.0,89,0.00,,CLR,0.00,0.00,VWS V14.00,2013-02-22 10:42:00,
2013-02-22 05:47:00,72.4,68.7,29.99,SSE,165,4.0,6.0,88,0.00,,CLR,0.00,0.00,VWS V14.00,2013-02-22 10:47:00,
2013-02-22 05:52:00,72.4,68.7,30.00,SSE,165,0.0,6.0,88,0.00,,CLR,0.00,0.00,VWS V14.00,2013-02-22 10:52:00,
2013-02-22 05:57:00,72.4,68.7,29.99,SSE,166,3.0,7.0,88,0.00,,CLR,0.00,0.00,VWS V14.00,2013-02-22 10:57:00,
2013-02-22 06:02:00,72.4,68.7,30.00,SSE,166,5.0,5.0,88,0.00,,CLR,0.00,0.00,VWS V14.00,2013-02-22 11:02:00,
2013-02-22 06:07:00,72.4,68.7,30.00,SSE,166,0.0,2.0,88,0.00,,CLR,0.00,0.00,VWS V14.00,2013-02-22 11:07:00,
2013-02-22 06:12:00,72.4,68.7,30.00,SSE,166,0.0,1.0,88,0.00,,CLR,0.00,0.00,VWS V14.00,2013-02-22 11:12:00,
2013-02-22 06:17:00,72.3,68.6,30.01,SSE,166,0.0,4.0,88,0.00,,CLR,0.00,0.00,VWS V14.00,2013-02-22 11:17:00,
2013-02-22 06:22:00,72.3,68.9,30.01,SSE,167,0.0,5.0,89,0.00,,CLR,0.00,0.00,VWS V14.00,2013-02-22 11:22:00,
2013-02-22 06:27:00,72.3,68.9,30.01,SSE,167,2.0,3.0,89,0.00,,CLR,0.00,0.00,VWS V14.00,2013-02-22 11:27:00,
2013-02-22 06:32:00,72.4,69.0,30.01,SSE,167,1.0,3.0,89,0.00,,CLR,0.00,0.00,VWS V14.00,2013-02-22 11:32:00,
2013-02-22 06:37:00,72.4,69.0,30.01,SSE,167,1.0,4.0,89,0.00,,CLR,0.00,0.00,VWS V14.00,2013-02-22 11:37:00,
2013-02-22 06:42:00,72.4,69.0,30.01,SSE,167,0.0,3.0,89,0.00,,CLR,0.00,0.00,VWS V14.00,2013-02-22 11:42:00,
2013-02-22 06:47:00,72.4,69.0,30.01,SSE,168,6.0,6.0,89,0.00,,CLR,0.00,0.00,VWS V14.00,2013-02-22 11:47:00,
2013-02-22 06:52:00,72.5,69.1,30.02,South,173,3.0,4.0,89,0.00,,CLR,0.00,0.00,VWS V14.00,2013-02-22 11:52:00,
2013-02-22 06:57:00,72.5,69.1,30.02,South,173,2.0,6.0,89,0.00,,CLR,0.00,0.00,VWS V14.00,2013-02-22 11:57:00,
2013-02-22 07:02:00,72.5,69.1,30.02,South,174,0.0,4.0,89,0.00,,CLR,0.00,5.00,VWS V14.00,2013-02-22 12:02:00,
2013-02-22 07:07:00,72.5,69.1,30.02,South,173,1.0,3.0,89,0.00,,CLR,0.00,7.00,VWS V14.00,2013-02-22 12:07:00,
2013-02-22 07:12:00,72.6,69.2,30.02,South,173,0.0,6.0,89,0.00,,CLR,0.00,9.00,VWS V14.00,2013-02-22 12:12:00,
2013-02-22 07:17:00,72.6,69.2,30.02,South,173,3.0,4.0,89,0.00,,CLR,0.00,11.00,VWS V14.00,2013-02-22 12:17:00,
2013-02-22 07:22:00,72.7,69.3,30.02,South,173,1.0,5.0,89,0.00,,CLR,0.00,28.00,VWS V14.00,2013-02-22 12:22:00,
2013-02-22 07:27:00,72.8,69.4,30.03,SE,144,0.0,4.0,89,0.00,,CLR,0.00,14.00,VWS V14.00,2013-02-22 12:27:00,
2013-02-22 07:33:00,72.9,69.5,30.03,SE,146,3.0,4.0,89,0.00,,CLR,0.00,35.00,VWS V14.00,2013-02-22 12:33:00,
2013-02-22 07:38:00,73.1,69.7,30.03,SE,146,0.0,4.0,89,0.00,,CLR,0.00,42.00,VWS V14.00,2013-02-22 12:38:00,
2013-02-22 07:43:00,73.4,70.0,30.03,SSE,152,3.0,5.0,89,0.00,,CLR,0.00,44.00,VWS V14.00,2013-02-22 12:43:00,
2013-02-22 07:48:00,73.7,69.9,30.03,SSE,168,0.0,9.0,88,0.00,,CLR,0.00,60.00,VWS V14.00,2013-02-22 12:48:00,
2013-02-22 07:53:00,74.0,70.2,30.03,SSE,168,3.0,5.0,88,0.00,,CLR,0.00,35.00,VWS V14.00,2013-02-22 12:53:00,
2013-02-22 07:58:00,74.2,70.4,30.04,South,180,1.0,8.0,88,0.00,,CLR,0.00,83.00,VWS V14.00,2013-02-22 12:58:00,
2013-02-22 08:03:00,74.5,70.4,30.04,South,191,11.0,15.0,87,0.00,,CLR,0.00,97.00,VWS V14.00,2013-02-22 13:03:00,
2013-02-22 08:08:00,74.7,70.2,30.04,SSW,205,7.0,12.0,86,0.00,,CLR,0.00,109.00,VWS V14.00,2013-02-22 13:08:00,
2013-02-22 08:13:00,74.8,70.3,30.04,South,180,12.0,13.0,86,0.00,,CLR,0.00,114.00,VWS V14.00,2013-02-22 13:13:00,
2013-02-22 08:18:00,74.9,70.4,30.04,South,171,6.0,10.0,86,0.00,,CLR,0.00,114.00,VWS V14.00,2013-02-22 13:18:00,
2013-02-22 08:23:00,75.1,70.3,30.04,South,177,3.0,9.0,85,0.00,,CLR,0.00,46.00,VWS V14.00,2013-02-22 13:23:00,
2013-02-22 08:28:00,75.1,70.3,30.04,South,184,3.0,4.0,85,0.00,,CLR,0.00,139.00,VWS V14.00,2013-02-22 13:28:00,
2013-02-22 08:33:00,75.2,70.4,30.04,South,178,0.0,14.0,85,0.00,,SCT020,0.00,144.00,VWS V14.00,2013-02-22 13:33:00,
2013-02-22 08:38:00,75.6,70.8,30.04,SE,142,12.0,13.0,85,0.00,,SCT020,0.00,65.00,VWS V14.00,2013-02-22 13:38:00,
2013-02-22 08:43:00,75.7,70.5,30.04,South,180,6.0,13.0,84,0.00,,SCT020,0.00,160.00,VWS V14.00,2013-02-22 13:43:00,
2013-02-22 08:48:00,75.8,70.6,30.04,SSE,167,11.0,12.0,84,0.00,,SCT020,0.00,144.00,VWS V14.00,2013-02-22 13:48:00,
2013-02-22 08:53:00,75.9,70.0,30.04,South,173,7.0,15.0,82,0.00,,SCT020,0.00,153.00,VWS V14.00,2013-02-22 13:53:00,
2013-02-22 08:58:00,76.1,70.2,30.04,South,174,13.0,16.0,82,0.00,,SCT020,0.00,153.00,VWS V14.00,2013-02-22 13:58:00,
2013-02-22 09:03:00,76.3,70.4,30.04,South,184,9.0,15.0,82,0.00,,SCT020,0.00,153.00,VWS V14.00,2013-02-22 14:03:00,
2013-02-22 09:08:00,76.4,70.5,30.05,SSW,192,10.0,13.0,82,0.00,,SCT020,0.00,155.00,VWS V14.00,2013-02-22 14:08:00,
2013-02-22 09:13:00,76.6,70.3,30.05,SSE,161,1.0,12.0,81,0.00,,SCT020,0.00,155.00,VWS V14.00,2013-02-22 14:13:00,
2013-02-22 09:18:00,76.8,70.2,30.05,SSE,165,2.0,12.0,80,0.00,,SCT020,0.00,153.00,VWS V14.00,2013-02-22 14:18:00,
2013-02-22 09:23:00,77.0,70.4,30.05,South,173,6.0,11.0,80,0.00,,SCT020,0.00,148.00,VWS V14.00,2013-02-22 14:23:00,
2013-02-22 09:28:00,77.1,70.1,30.05,SSW,196,10.0,10.0,79,0.00,,SCT020,0.00,51.00,VWS V14.00,2013-02-22 14:28:00,
2013-02-22 09:33:00,77.2,70.2,30.05,SSW,196,11.0,14.0,79,0.00,,SCT020,0.00,70.00,VWS V14.00,2013-02-22 14:33:00,
2013-02-22 09:38:00,77.3,70.3,30.05,South,180,4.0,9.0,79,0.00,,SCT020,0.00,62.00,VWS V14.00,2013-02-22 14:38:00,
2013-02-22 09:43:00,77.5,70.1,30.05,South,176,3.0,12.0,78,0.00,,SCT020,0.00,88.00,VWS V14.00,2013-02-22 14:43:00,
2013-02-22 09:48:00,77.6,70.6,30.05,SSE,151,12.0,12.0,79,0.00,,SCT020,0.00,169.00,VWS V14.00,2013-02-22 14:48:00,
2013-02-22 09:53:00,77.6,70.2,30.05,SSE,166,5.0,11.0,78,0.00,,SCT020,0.00,81.00,VWS V14.00,2013-02-22 14:53:00,
2013-02-22 09:58:00,77.5,70.1,30.06,South,184,10.0,13.0,78,0.00,,SCT020,0.00,84.00,VWS V14.00,2013-02-22 14:58:00,
2013-02-22 10:03:00,77.4,70.8,30.05,South,177,3.0,6.0,80,0.00,,SCT020,0.00,72.00,VWS V14.00,2013-02-22 15:03:00,
2013-02-22 10:08:00,77.6,70.6,30.05,South,170,4.0,8.0,79,0.00,,SCT020,0.00,104.00,VWS V14.00,2013-02-22 15:08:00,
2013-02-22 10:13:00,77.8,70.4,30.06,SSW,195,11.0,11.0,78,0.00,,SCT020,0.00,67.00,VWS V14.00,2013-02-22 15:13:00,
2013-02-22 10:18:00,77.6,70.2,30.05,South,169,2.0,14.0,78,0.00,,SCT020,0.00,83.00,VWS V14.00,2013-02-22 15:18:00,
2013-02-22 10:23:00,77.5,70.5,30.05,South,184,3.0,6.0,79,0.00,,SCT020,0.00,142.00,VWS V14.00,2013-02-22 15:23:00,
2013-02-22 10:28:00,77.5,70.5,30.05,South,177,10.0,15.0,79,0.00,,SCT020,0.00,127.00,VWS V14.00,2013-02-22 15:28:00,
2013-02-22 10:33:00,77.3,70.3,30.05,South,182,11.0,16.0,79,0.00,,SCT020,0.00,56.00,VWS V14.00,2013-02-22 15:33:00,
2013-02-22 10:38:00,77.2,70.2,30.05,South,190,9.0,13.0,79,0.00,,SCT020,0.00,63.00,VWS V14.00,2013-02-22 15:38:00,
2013-02-22 10:43:00,77.1,70.1,30.05,South,174,11.0,14.0,79,0.00,,SCT020,0.00,160.00,VWS V14.00,2013-02-22 15:43:00,
2013-02-22 10:48:00,77.3,70.3,30.05,South,184,8.0,14.0,79,0.00,,SCT020,0.00,58.00,VWS V14.00,2013-02-22 15:48:00,
2013-02-22 10:53:00,77.2,70.2,30.05,SSE,150,9.0,9.0,79,0.00,,SCT020,0.00,76.00,VWS V14.00,2013-02-22 15:53:00,
2013-02-22 10:58:00,77.3,70.7,30.05,South,171,10.0,12.0,80,0.00,,SCT020,0.00,116.00,VWS V14.00,2013-02-22 15:58:00,
2013-02-22 11:03:00,77.7,70.7,30.06,SSE,159,6.0,10.0,79,0.00,,SCT020,0.00,60.00,VWS V14.00,2013-02-22 16:03:00,
2013-02-22 11:09:00,77.7,70.3,30.05,South,171,6.0,13.0,78,0.00,,SCT020,0.00,176.00,VWS V14.00,2013-02-22 16:09:00,
2013-02-22 11:14:00,77.9,70.9,30.05,South,182,4.0,14.0,79,0.00,,SCT020,0.00,179.00,VWS V14.00,2013-02-22 16:14:00,
2013-02-22 11:18:00,78.4,71.0,30.05,South,178,14.0,19.0,78,0.00,,SCT020,0.00,185.00,VWS V14.00,2013-02-22 16:18:00,
2013-02-22 11:24:00,78.9,71.5,30.05,South,179,0.0,7.0,78,0.00,,SCT020,0.00,160.00,VWS V14.00,2013-02-22 16:24:00,
2013-02-22 11:29:00,79.3,71.1,30.04,South,171,10.0,13.0,76,0.00,,SCT020,0.00,163.00,VWS V14.00,2013-02-22 16:29:00,
2013-02-22 11:34:00,79.1,70.9,30.05,SSE,148,9.0,14.0,76,0.00,,BKN015,0.00,76.00,VWS V14.00,2013-02-22 16:34:00,
2013-02-22 11:39:00,78.8,70.6,30.05,SSW,208,6.0,15.0,76,0.00,,BKN015,0.00,118.00,VWS V14.00,2013-02-22 16:39:00,
2013-02-22 11:44:00,79.4,71.2,30.05,SSE,164,5.0,9.0,76,0.00,,BKN015,0.00,202.00,VWS V14.00,2013-02-22 16:44:00,
2013-02-22 11:49:00,79.5,70.9,30.05,SSE,157,15.0,15.0,75,0.00,,BKN015,0.00,88.00,VWS V14.00,2013-02-22 16:49:00,
2013-02-22 11:54:00,79.0,70.0,30.04,South,169,3.0,13.0,74,0.00,,BKN015,0.00,91.00,VWS V14.00,2013-02-22 16:54:00,
2013-02-22 11:59:00,78.7,70.1,30.04,South,180,6.0,6.0,75,0.00,,BKN015,0.00,199.00,VWS V14.00,2013-02-22 16:59:00,
2013-02-22 12:04:00,78.8,70.2,30.04,South,190,10.0,10.0,75,0.00,,BKN015,0.00,81.00,VWS V14.00,2013-02-22 17:04:00,
2013-02-22 12:09:00,78.6,70.4,30.03,SSW,197,10.0,14.0,76,0.00,,BKN015,0.00,102.00,VWS V14.00,2013-02-22 17:09:00,
2013-02-22 12:14:00,78.4,70.2,30.03,South,175,6.0,11.0,76,0.00,,BKN015,0.00,123.00,VWS V14.00,2013-02-22 17:14:00,
2013-02-22 12:19:00,78.9,71.1,30.03,South,184,13.0,17.0,77,0.00,,BKN015,0.00,120.00,VWS V14.00,2013-02-22 17:19:00,
2013-02-22 12:24:00,79.1,70.5,30.03,South,183,8.0,15.0,75,0.00,,BKN015,0.00,102.00,VWS V14.00,2013-02-22 17:24:00,
2013-02-22 12:29:00,79.0,70.8,30.03,SSE,163,3.0,10.0,76,0.00,,BKN015,0.00,114.00,VWS V14.00,2013-02-22 17:29:00,
2013-02-22 12:34:00,79.2,71.0,30.02,South,182,6.0,13.0,76,0.00,,SCT016,0.00,207.00,VWS V14.00,2013-02-22 17:34:00,
2013-02-22 12:39:00,79.6,71.0,30.02,South,183,14.0,16.0,75,0.00,,SCT016,0.00,190.00,VWS V14.00,2013-02-22 17:39:00,
2013-02-22 12:44:00,79.8,71.2,30.02,South,181,6.0,11.0,75,0.00,,SCT016,0.00,197.00,VWS V14.00,2013-02-22 17:44:00,
2013-02-22 12:49:00,79.7,70.7,30.02,SSE,162,5.0,15.0,74,0.00,,SCT016,0.00,84.00,VWS V14.00,2013-02-22 17:49:00,
2013-02-22 12:54:00,79.5,71.3,30.02,SSE,155,11.0,15.0,76,0.00,,SCT016,0.00,185.00,VWS V14.00,2013-02-22 17:54:00,
2013-02-22 12:59:00,79.3,70.7,30.01,SSE,163,7.0,11.0,75,0.00,,SCT016,0.00,121.00,VWS V14.00,2013-02-22 17:59:00,
2013-02-22 13:04:00,79.5,71.3,30.01,SSW,196,9.0,11.0,76,0.00,,SCT016,0.00,199.00,VWS V14.00,2013-02-22 18:04:00,
2013-02-22 13:09:00,79.9,71.3,30.01,SSE,161,14.0,14.0,75,0.00,,SCT016,0.00,162.00,VWS V14.00,2013-02-22 18:09:00,
2013-02-22 13:14:00,79.4,70.8,30.01,South,185,5.0,13.0,75,0.00,,SCT016,0.00,111.00,VWS V14.00,2013-02-22 18:14:00,
2013-02-22 13:19:00,79.6,71.0,30.01,South,175,13.0,14.0,75,0.00,,SCT016,0.00,90.00,VWS V14.00,2013-02-22 18:19:00,
2013-02-22 13:24:00,79.1,70.5,30.00,South,187,6.0,13.0,75,0.00,,SCT016,0.00,186.00,VWS V14.00,2013-02-22 18:24:00,
2013-02-22 13:29:00,79.7,70.7,30.00,SSW,202,2.0,16.0,74,0.00,,SCT016,0.00,179.00,VWS V14.00,2013-02-22 18:29:00,
2013-02-22 13:34:00,80.4,71.4,30.00,South,182,14.0,14.0,74,0.00,,SCT017,0.00,142.00,VWS V14.00,2013-02-22 18:34:00,
2013-02-22 13:39:00,80.2,70.8,30.00,SSE,156,16.0,18.0,73,0.00,,SCT017,0.00,183.00,VWS V14.00,2013-02-22 18:39:00,
2013-02-22 13:44:00,80.3,70.9,30.00,SSW,193,4.0,12.0,73,0.00,,SCT017,0.00,176.00,VWS V14.00,2013-02-22 18:44:00,
2013-02-22 13:49:00,80.5,70.7,30.00,South,176,7.0,16.0,72,0.00,,SCT017,0.00,179.00,VWS V14.00,2013-02-22 18:49:00,
2013-02-22 13:54:00,80.4,70.6,30.00,South,189,5.0,6.0,72,0.00,,SCT017,0.00,190.00,VWS V14.00,2013-02-22 18:54:00,
2013-02-22 13:59:00,80.1,71.1,29.99,South,175,7.0,14.0,74,0.00,,SCT017,0.00,190.00,VWS V14.00,2013-02-22 18:59:00,
2013-02-22 14:04:00,80.1,71.1,29.99,SSW,192,10.0,16.0,74,0.00,,SCT017,0.00,165.00,VWS V14.00,2013-02-22 19:04:00,
2013-02-22 14:09:00,80.3,71.3,29.99,South,175,17.0,17.0,74,0.00,,SCT017,0.00,181.00,VWS V14.00,2013-02-22 19:09:00,
2013-02-22 14:14:00,80.0,71.0,29.99,South,178,12.0,15.0,74,0.00,,SCT017,0.00,69.00,VWS V14.00,2013-02-22 19:14:00,
2013-02-22 14:19:00,80.0,71.4,29.99,South,178,10.0,12.0,75,0.00,,SCT017,0.00,160.00,VWS V14.00,2013-02-22 19:19:00,
2013-02-22 14:24:00,80.1,71.1,29.99,South,175,3.0,11.0,74,0.00,,SCT017,0.00,153.00,VWS V14.00,2013-02-22 19:24:00,
2013-02-22 14:29:00,80.2,70.8,29.99,South,178,6.0,10.0,73,0.00,,SCT017,0.00,155.00,VWS V14.00,2013-02-22 19:29:00,
2013-02-22 14:34:00,80.0,70.6,29.99,South,184,11.0,13.0,73,0.00,,SCT017,0.00,77.00,VWS V14.00,2013-02-22 19:34:00,
2013-02-22 14:39:00,79.9,70.5,29.99,SSE,166,6.0,12.0,73,0.00,,SCT017,0.00,162.00,VWS V14.00,2013-02-22 19:39:00,
2013-02-22 14:44:00,80.2,70.8,29.99,South,171,6.0,17.0,73,0.00,,SCT017,0.00,62.00,VWS V14.00,2013-02-22 19:44:00,
2013-02-22 14:49:00,79.9,70.5,29.99,SSW,196,6.0,13.0,73,0.00,,SCT017,0.00,141.00,VWS V14.00,2013-02-22 19:49:00,
2013-02-22 14:54:00,79.8,70.4,29.99,South,169,2.0,13.0,73,0.00,,SCT017,0.00,144.00,VWS V14.00,2013-02-22 19:54:00,
2013-02-22 14:59:00,79.9,70.5,29.99,South,185,10.0,14.0,73,0.00,,SCT017,0.00,148.00,VWS V14.00,2013-02-22 19:59:00,
2013-02-22 15:04:00,80.1,70.7,29.99,SE,130,6.0,13.0,73,0.00,,SCT017,0.00,137.00,VWS V14.00,2013-02-22 20:04:00,
2013-02-22 15:09:00,80.1,70.3,29.99,SSW,200,6.0,10.0,72,0.00,,SCT017,0.00,142.00,VWS V14.00,2013-02-22 20:09:00,
2013-02-22 15:14:00,80.3,70.9,29.99,South,177,12.0,14.0,73,0.00,,SCT017,0.00,142.00,VWS V14.00,2013-02-22 20:14:00,
2013-02-22 15:19:00,80.1,70.3,29.99,South,184,5.0,11.0,72,0.00,,SCT017,0.00,130.00,VWS V14.00,2013-02-22 20:19:00,
2013-02-22 15:24:00,80.0,70.2,29.98,SSW,199,3.0,8.0,72,0.00,,SCT017,0.00,132.00,VWS V14.00,2013-02-22 20:24:00,
2013-02-22 15:29:00,79.8,70.4,29.98,South,181,14.0,14.0,73,0.00,,SCT017,0.00,91.00,VWS V14.00,2013-02-22 20:29:00,
2013-02-22 15:34:00,79.6,70.2,29.99,South,178,6.0,14.0,73,0.00,,SCT020,0.00,84.00,VWS V14.00,2013-02-22 20:34:00,
2013-02-22 15:39:00,79.8,70.4,29.98,South,187,5.0,7.0,73,0.00,,SCT020,0.00,113.00,VWS V14.00,2013-02-22 20:39:00,
2013-02-22 15:44:00,80.0,70.2,29.98,South,173,3.0,12.0,72,0.00,,SCT020,0.00,102.00,VWS V14.00,2013-02-22 20:44:00,
2013-02-22 15:49:00,79.9,70.1,29.98,SSW,212,9.0,13.0,72,0.00,,SCT020,0.00,95.00,VWS V14.00,2013-02-22 20:49:00,
2013-02-22 15:54:00,79.7,69.5,29.98,South,184,6.0,14.0,71,0.00,,SCT020,0.00,90.00,VWS V14.00,2013-02-22 20:54:00,
2013-02-22 15:59:00,79.6,69.8,29.98,SSW,204,14.0,16.0,72,0.00,,SCT020,0.00,86.00,VWS V14.00,2013-02-22 20:59:00,
2013-02-22 16:04:00,79.3,69.1,29.98,SSW,209,12.0,15.0,71,0.00,,SCT020,0.00,84.00,VWS V14.00,2013-02-22 21:04:00,
2013-02-22 16:09:00,79.3,69.9,29.98,SSE,164,3.0,7.0,73,0.00,,SCT020,0.00,83.00,VWS V14.00,2013-02-22 21:09:00,
2013-02-22 16:14:00,79.6,70.2,29.99,SSW,197,10.0,12.0,73,0.00,,SCT020,0.00,83.00,VWS V14.00,2013-02-22 21:14:00,
2013-02-22 16:19:00,79.5,70.1,29.98,SSW,202,8.0,15.0,73,0.00,,SCT020,0.00,86.00,VWS V14.00,2013-02-22 21:19:00,
2013-02-22 16:24:00,79.2,70.2,29.99,SSW,193,9.0,14.0,74,0.00,,SCT020,0.00,83.00,VWS V14.00,2013-02-22 21:24:00,
2013-02-22 16:29:00,79.0,70.0,29.99,SSE,163,12.0,18.0,74,0.00,,SCT020,0.00,79.00,VWS V14.00,2013-02-22 21:29:00,
2013-02-22 16:34:00,78.7,69.7,29.99,South,180,6.0,15.0,74,0.00,,SCT025,0.00,79.00,VWS V14.00,2013-02-22 21:34:00,
2013-02-22 16:39:00,79.0,70.4,29.98,SSE,153,10.0,14.0,75,0.00,,SCT025,0.00,77.00,VWS V14.00,2013-02-22 21:39:00,
2013-02-22 16:44:00,78.8,70.2,29.98,South,190,10.0,12.0,75,0.00,,SCT025,0.00,76.00,VWS V14.00,2013-02-22 21:44:00,
2013-02-22 16:49:00,78.7,70.5,29.98,SSW,192,12.0,13.0,76,0.00,,SCT025,0.00,74.00,VWS V14.00,2013-02-22 21:49:00,
2013-02-22 16:54:00,78.7,70.1,29.98,South,179,3.0,10.0,75,0.00,,SCT025,0.00,72.00,VWS V14.00,2013-02-22 21:54:00,
2013-02-22 16:59:00,78.7,70.5,29.98,SSW,201,4.0,14.0,76,0.00,,SCT025,0.00,70.00,VWS V14.00,2013-02-22 21:59:00,
2013-02-22 17:04:00,78.4,69.8,29.99,SSW,194,4.0,16.0,75,0.00,,SCT025,0.00,67.00,VWS V14.00,2013-02-22 22:04:00,
2013-02-22 17:09:00,78.1,69.9,29.99,SSW,210,9.0,13.0,76,0.00,,SCT025,0.00,65.00,VWS V14.00,2013-02-22 22:09:00,
2013-02-22 17:14:00,78.0,70.2,29.99,SSE,155,3.0,7.0,77,0.00,,SCT025,0.00,60.00,VWS V14.00,2013-02-22 22:14:00,
2013-02-22 17:19:00,77.9,70.1,29.99,South,184,13.0,14.0,77,0.00,,SCT025,0.00,60.00,VWS V14.00,2013-02-22 22:19:00,
2013-02-22 17:24:00,77.7,69.9,29.99,South,191,7.0,14.0,77,0.00,,SCT025,0.00,56.00,VWS V14.00,2013-02-22 22:24:00,
2013-02-22 17:29:00,77.4,70.4,29.99,South,184,6.0,12.0,79,0.00,,SCT025,0.00,53.00,VWS V14.00,2013-02-22 22:29:00,
2013-02-22 17:34:00,77.1,70.1,29.99,South,178,6.0,7.0,79,0.00,,FEW025,0.00,49.00,VWS V14.00,2013-02-22 22:34:00,
2013-02-22 17:39:00,76.9,69.9,29.99,SSE,161,5.0,11.0,79,0.00,,FEW025,0.00,44.00,VWS V14.00,2013-02-22 22:39:00,
2013-02-22 17:44:00,76.7,70.1,29.99,South,171,5.0,9.0,80,0.00,,FEW025,0.00,39.00,VWS V14.00,2013-02-22 22:44:00,
2013-02-22 17:49:00,76.6,70.3,29.99,SSE,167,10.0,11.0,81,0.00,,FEW025,0.00,33.00,VWS V14.00,2013-02-22 22:49:00,
2013-02-22 17:54:00,76.4,70.1,30.00,South,186,13.0,13.0,81,0.00,,FEW025,0.00,26.00,VWS V14.00,2013-02-22 22:54:00,
2013-02-22 17:59:00,76.4,70.1,30.00,South,176,4.0,13.0,81,0.00,,FEW025,0.00,21.00,VWS V14.00,2013-02-22 22:59:00,
2013-02-22 18:04:00,76.2,70.3,30.00,SSW,193,11.0,14.0,82,0.00,,FEW025,0.00,11.00,VWS V14.00,2013-02-22 23:04:00,
2013-02-22 18:09:00,76.0,70.1,30.00,South,187,4.0,12.0,82,0.00,,FEW025,0.00,5.00,VWS V14.00,2013-02-22 23:09:00,
2013-02-22 18:14:00,75.8,69.9,30.00,South,169,6.0,10.0,82,0.00,,FEW025,0.00,0.00,VWS V14.00,2013-02-22 23:14:00,
2013-02-22 18:19:00,75.6,70.1,30.00,South,180,2.0,16.0,83,0.00,,FEW025,0.00,0.00,VWS V14.00,2013-02-22 23:19:00,
2013-02-22 18:25:00,75.4,69.9,30.00,South,181,9.0,10.0,83,0.00,,FEW025,0.00,0.00,VWS V14.00,2013-02-22 23:25:00,
2013-02-22 18:30:00,75.3,69.8,30.00,SSE,166,3.0,10.0,83,0.00,,FEW025,0.00,0.00,VWS V14.00,2013-02-22 23:30:00,
2013-02-22 18:35:00,75.2,70.0,30.00,SSE,164,4.0,6.0,84,0.00,,FEW025,0.00,0.00,VWS V14.00,2013-02-22 23:35:00,
2013-02-22 18:40:00,75.2,70.0,30.00,SSE,159,13.0,13.0,84,0.00,,FEW025,0.00,0.00,VWS V14.00,2013-02-22 23:40:00,
2013-02-22 18:45:00,75.1,69.9,30.00,South,179,10.0,11.0,84,0.00,,FEW025,0.00,0.00,VWS V14.00,2013-02-22 23:45:00,
2013-02-22 18:50:00,75.0,69.8,30.00,SSE,159,4.0,12.0,84,0.00,,FEW025,0.00,0.00,VWS V14.00,2013-02-22 23:50:00,
2013-02-22 18:55:00,74.9,69.7,30.00,South,183,6.0,9.0,84,0.00,,FEW025,0.00,0.00,VWS V14.00,2013-02-22 23:55:00,
2013-02-22 19:00:00,74.9,69.7,30.00,South,184,1.0,6.0,84,0.00,,FEW025,0.00,0.00,VWS V14.00,2013-02-23 00:00:00,
2013-02-22 19:05:00,74.8,69.7,30.00,South,175,7.0,10.0,84,0.00,,FEW025,0.00,0.00,VWS V14.00,2013-02-23 00:05:00,
2013-02-22 19:10:00,74.8,69.7,30.00,South,171,7.0,10.0,84,0.00,,FEW025,0.00,0.00,VWS V14.00,2013-02-23 00:10:00,
2013-02-22 19:15:00,74.8,69.7,30.00,South,174,4.0,7.0,84,0.00,,FEW025,0.00,0.00,VWS V14.00,2013-02-23 00:15:00,
2013-02-22 19:20:00,74.8,69.7,30.00,South,172,1.0,6.0,84,0.00,,FEW025,0.00,0.00,VWS V14.00,2013-02-23 00:20:00,
2013-02-22 19:25:00,74.8,70.0,30.00,SSE,159,12.0,12.0,85,0.00,,FEW025,0.00,0.00,VWS V14.00,2013-02-23 00:25:00,
2013-02-22 19:30:00,74.8,70.0,30.01,South,169,0.0,4.0,85,0.00,,FEW025,0.00,0.00,VWS V14.00,2013-02-23 00:30:00,
2013-02-22 19:35:00,74.9,70.4,30.01,SSE,167,4.0,10.0,86,0.00,,FEW025,0.00,0.00,VWS V14.00,2013-02-23 00:35:00,
2013-02-22 19:40:00,74.9,70.4,30.01,SSE,167,4.0,11.0,86,0.00,,FEW025,0.00,0.00,VWS V14.00,2013-02-23 00:40:00,
2013-02-22 19:45:00,74.9,70.4,30.01,SSE,161,3.0,7.0,86,0.00,,FEW025,0.00,0.00,VWS V14.00,2013-02-23 00:45:00,
2013-02-22 19:50:00,74.8,70.7,30.01,SSE,165,4.0,7.0,87,0.00,,FEW025,0.00,0.00,VWS V14.00,2013-02-23 00:50:00,
2013-02-22 19:55:00,74.8,70.7,30.01,South,175,6.0,9.0,87,0.00,,FEW025,0.00,0.00,VWS V14.00,2013-02-23 00:55:00,
2013-02-22 20:00:00,74.7,70.6,30.01,SSE,164,5.0,11.0,87,0.00,,FEW025,0.00,0.00,VWS V14.00,2013-02-23 01:00:00,
2013-02-22 20:05:00,74.7,70.6,30.02,SSE,165,6.0,13.0,87,0.00,,FEW025,0.00,0.00,VWS V14.00,2013-02-23 01:05:00,
2013-02-22 20:10:00,74.7,70.6,30.02,South,186,6.0,6.0,87,0.00,,FEW025,0.00,0.00,VWS V14.00,2013-02-23 01:10:00,
2013-02-22 20:15:00,74.7,70.6,30.02,South,178,9.0,10.0,87,0.00,,FEW025,0.00,0.00,VWS V14.00,2013-02-23 01:15:00,
2013-02-22 20:20:00,74.7,70.2,30.02,SSE,161,0.0,10.0,86,0.00,,FEW025,0.00,0.00,VWS V14.00,2013-02-23 01:20:00,
2013-02-22 20:25:00,74.6,70.1,30.02,SSE,164,6.0,9.0,86,0.00,,FEW025,0.00,0.00,VWS V14.00,2013-02-23 01:25:00,
2013-02-22 20:30:00,74.6,70.1,30.02,SSE,165,2.0,9.0,86,0.00,,FEW025,0.00,0.00,VWS V14.00,2013-02-23 01:30:00,
2013-02-22 20:35:00,74.5,70.0,30.01,SSE,165,6.0,11.0,86,0.00,,FEW025,0.00,0.00,VWS V14.00,2013-02-23 01:35:00,
2013-02-22 20:40:00,74.5,70.0,30.02,South,182,0.0,10.0,86,0.00,,FEW025,0.00,0.00,VWS V14.00,2013-02-23 01:40:00,
2013-02-22 20:45:00,74.5,70.4,30.02,South,185,4.0,12.0,87,0.00,,FEW025,0.00,0.00,VWS V14.00,2013-02-23 01:45:00,
2013-02-22 20:50:00,74.5,70.4,30.02,South,173,2.0,6.0,87,0.00,,FEW025,0.00,0.00,VWS V14.00,2013-02-23 01:50:00,
2013-02-22 20:55:00,74.4,70.3,30.02,SSE,163,7.0,12.0,87,0.00,,FEW025,0.00,0.00,VWS V14.00,2013-02-23 01:55:00,
2013-02-22 21:00:00,74.4,70.3,30.02,SSE,158,9.0,9.0,87,0.00,,FEW025,0.00,0.00,VWS V14.00,2013-02-23 02:00:00,
2013-02-22 21:05:00,74.4,70.3,30.02,SSE,163,10.0,10.0,87,0.00,,FEW025,0.00,0.00,VWS V14.00,2013-02-23 02:05:00,
2013-02-22 21:11:00,74.4,70.3,30.02,South,173,2.0,6.0,87,0.00,,FEW025,0.00,0.00,VWS V14.00,2013-02-23 02:11:00,
2013-02-22 21:16:00,74.4,70.3,30.02,SSE,157,3.0,14.0,87,0.00,,FEW025,0.00,0.00,VWS V14.00,2013-02-23 02:16:00,
2013-02-22 21:21:00,74.4,70.3,30.02,South,180,4.0,9.0,87,0.00,,FEW025,0.00,0.00,VWS V14.00,2013-02-23 02:21:00,
2013-02-22 21:26:00,74.3,70.2,30.02,SSE,164,4.0,9.0,87,0.00,,FEW025,0.00,0.00,VWS V14.00,2013-02-23 02:26:00,
2013-02-22 21:31:00,74.4,70.3,30.02,South,171,1.0,6.0,87,0.00,,FEW025,0.00,0.00,VWS V14.00,2013-02-23 02:31:00,
2013-02-22 21:36:00,74.3,70.2,30.02,SSE,163,1.0,8.0,87,0.00,,FEW030,0.00,0.00,VWS V14.00,2013-02-23 02:36:00,
2013-02-22 21:41:00,74.3,69.8,30.02,South,171,6.0,11.0,86,0.00,,FEW030,0.00,0.00,VWS V14.00,2013-02-23 02:41:00,
2013-02-22 21:46:00,74.3,70.2,30.02,South,171,5.0,5.0,87,0.00,,FEW030,0.00,0.00,VWS V14.00,2013-02-23 02:46:00,
2013-02-22 21:51:00,74.4,70.3,30.02,SSE,167,0.0,5.0,87,0.00,,FEW030,0.00,0.00,VWS V14.00,2013-02-23 02:51:00,
2013-02-22 21:56:00,74.3,70.2,30.02,South,188,9.0,11.0,87,0.00,,FEW030,0.00,0.00,VWS V14.00,2013-02-23 02:56:00,
2013-02-22 22:01:00,74.4,69.9,30.02,South,176,0.0,10.0,86,0.00,,FEW030,0.00,0.00,VWS V14.00,2013-02-23 03:01:00,
2013-02-22 22:06:00,74.4,69.9,30.02,South,177,3.0,6.0,86,0.00,,FEW030,0.00,0.00,VWS V14.00,2013-02-23 03:06:00,
2013-02-22 22:11:00,74.4,69.9,30.02,South,175,4.0,5.0,86,0.00,,FEW030,0.00,0.00,VWS V14.00,2013-02-23 03:11:00,
2013-02-22 22:16:00,74.4,69.9,30.02,South,177,5.0,11.0,86,0.00,,FEW030,0.00,0.00,VWS V14.00,2013-02-23 03:16:00,
2013-02-22 22:21:00,74.4,69.9,30.02,South,175,0.0,6.0,86,0.00,,FEW030,0.00,0.00,VWS V14.00,2013-02-23 03:21:00,
2013-02-22 22:26:00,74.4,69.9,30.02,South,170,9.0,11.0,86,0.00,,FEW030,0.00,0.00,VWS V14.00,2013-02-23 03:26:00,
2013-02-22 22:31:00,74.5,70.0,30.02,SSE,163,0.0,3.0,86,0.00,,FEW030,0.00,0.00,VWS V14.00,2013-02-23 03:31:00,
2013-02-22 22:36:00,74.5,70.0,30.02,South,180,6.0,15.0,86,0.00,,FEW030,0.00,0.00,VWS V14.00,2013-02-23 03:36:00,
2013-02-22 22:41:00,74.6,70.1,30.02,SSE,162,1.0,15.0,86,0.00,,FEW030,0.00,0.00,VWS V14.00,2013-02-23 03:41:00,
2013-02-22 22:46:00,74.6,70.5,30.02,South,176,7.0,10.0,87,0.00,,FEW030,0.00,0.00,VWS V14.00,2013-02-23 03:46:00,
2013-02-22 22:51:00,74.4,70.3,30.02,South,175,6.0,7.0,87,0.00,,FEW030,0.00,0.00,VWS V14.00,2013-02-23 03:51:00,
2013-02-22 22:56:00,74.1,70.0,30.02,South,169,7.0,14.0,87,0.00,,FEW030,0.00,0.00,VWS V14.00,2013-02-23 03:56:00,
2013-02-22 23:01:00,73.9,69.8,30.02,SSE,159,10.0,10.0,87,0.00,,FEW030,0.00,0.00,VWS V14.00,2013-02-23 04:01:00,
2013-02-22 23:06:00,73.7,69.6,30.02,South,178,11.0,11.0,87,0.00,,FEW030,0.00,0.00,VWS V14.00,2013-02-23 04:06:00,
2013-02-22 23:11:00,73.6,69.5,30.02,South,174,5.0,6.0,87,0.00,,FEW030,0.00,0.00,VWS V14.00,2013-02-23 04:11:00,
2013-02-22 23:16:00,73.4,69.3,30.02,South,183,2.0,7.0,87,0.00,,FEW030,0.00,0.00,VWS V14.00,2013-02-23 04:16:00,
2013-02-22 23:21:00,73.4,69.3,30.01,South,185,11.0,13.0,87,0.00,,FEW030,0.00,0.00,VWS V14.00,2013-02-23 04:21:00,
2013-02-22 23:26:00,73.4,69.0,30.01,South,181,11.0,12.0,86,0.00,,FEW030,0.00,0.00,VWS V14.00,2013-02-23 04:26:00,
2013-02-22 23:31:00,73.4,69.0,30.01,South,178,6.0,9.0,86,0.00,,FEW030,0.00,0.00,VWS V14.00,2013-02-23 04:31:00,
2013-02-22 23:36:00,73.5,69.1,30.01,SSE,167,5.0,11.0,86,0.00,,FEW030,0.00,0.00,VWS V14.00,2013-02-23 04:36:00,
2013-02-22 23:41:00,73.5,69.4,30.01,South,178,5.0,7.0,87,0.00,,FEW030,0.00,0.00,VWS V14.00,2013-02-23 04:41:00,
2013-02-22 23:46:00,73.5,69.4,30.01,South,171,5.0,10.0,87,0.00,,FEW030,0.00,0.00,VWS V14.00,2013-02-23 04:46:00,
2013-02-22 23:51:00,73.5,69.4,30.01,South,182,6.0,11.0,87,0.00,,FEW030,0.00,0.00,VWS V14.00,2013-02-23 04:51:00,
2013-02-22 23:56:00,73.4,69.3,30.01,South,188,5.0,10.0,87,0.00,,FEW030,0.00,0.00,VWS V14.00,2013-02-23 04:56:00,